THORAD AGENA D DEB, 42499

Orbit data source: Space-Track

THORAD AGENA D DEB, 42499 is space debris in SSO originally from a launch on Wed, 08 Apr 1970 UTC launched from the Air Force Western Test Range (AFWTR). Debris objects in space refer to the collection of defunct objects orbiting the Earth. Examples of debris include non-operational satellites, rocket bodies, and fragments generated from explosions, collisions, or faulty payload assembly.

Loading next visibility...
Identifier
42499, 1970-025RD
Orbit
SSO
Last TLE update
8 hours ago
Origin
Manufacturer
Unknown
Mission
Spacecraft
Bus & Motor
Unknown
Mass
Unknown
Launch date (UTC)
1970-04-08 (55 years ago)
Launch vehicle
Unknown
Launch site
Air Force Western Test Range (AFWTR)
Object type
Payload
Rocket body
Debris
Shape & HBR
Unknown
Radar Cross Section
Small (<0.1 m²)

Expand to show TLE details & history

TLE from 8 hours ago
0 THORAD AGENA D DEB
1 42499U 70025RD  25199.63431470  .00000698  00000-0  73267-3 0  9997
2 42499 100.1099  84.2918 0008544 353.4372   6.6664 13.79028497142285
Epoch: 2025-07-18T15:13Z
TLE epoch observation values (Epoch: 2025-07-18T15:13:24.79Z)
Latitude
0.00001°
Longitude
-80.74445°
Altitude
963.911 km
Speed
7.373 km/s
True Right ascension
05h 37m 10s
True Declination
0° 00' 00"
Sunlit
Object was in daylight at epoch
Visualization orbit readout
Latitude
-76.37373°
Longitude
52.5885°
Altitude
994.978 km
Speed
7.353 km/s
Apparent Right ascension
23h 11m 37s
Apparent Declination
-72° 15' 15"
Sunlit
Object is in daylight
Visualization observer readout
Local Sidereal Time
12:14:34
Azimuth
171.331° S
Elevation
-56.735°
Doppler factor
1
Orbital elements
Apogee altitude
970.893 km
Perigee altitude
958.345 km
Semi-major axis
7,342.756 km
Eccentricity
0.00085
Inclination
100.1099°
RAAN
84.2918°
Arg. of periapsis
353.4372°
True anomaly
6.67778°
Mean anomaly
6.6664°
Eccentric anomaly
6.67209°
Mean motion
3.44949 °/min
Orbital period
104.36 mins
BSTAR
0.00073267
Loading maneuver chart data...
Loading SW <> Apogee altitude chart data...
|